User: anonymous   Login
Location: Unspecified
(0.0000°N, 0.0000°E)
Time: 03:34:45
(UTC+00:00)
Language:

USA 186 - Orbit

View from above orbital plane
View from above orbital plane
View from above satellite
View from above satellite

Ground track
Ground track

The orbit data is extracted from the following two-line orbital elements,

1 28888U 05042A   15125.78770351 0.00044000  00000-0  22148-3 0    08
2 28888  96.8851 164.0553 0140854 181.4960 178.5038 15.68397421    06
Epoch (UTC): 05 May 2015 18:54:17
Eccentricity: 0.0140854
inclination: 96.8851°
perigee height: 268 km
apogee height: 458 km
right ascension of ascending node: 164.0553°
argument of perigee: 181.4960°
revolutions per day: 15.68397421
mean anomaly at epoch: 178.5038°
orbit number at epoch: 0

The dashed part of the orbit path shows where the satellite is in the earth's shadow,  

DLR